FDX5092 RJOO-RJFF

Flight info

Callsign FDX5092
Flight time N/A
Altitude 32000
Route TIGER2 TIGER DCT SUMAR DCT AYAME DCT SETOH DCT SOUJA Y281 STOUT Y20 KIRIN KIRIND
Aircraft B738/M-SDE3/L

Departure

Time 2026-04-27 11:51
Airport Osaka Itami International Airport (RJOO)

Arrival

Time N/A
Airport Fukuoka Airport (RJFF)
Time Latitude Longitude Altitude Speed Heading
2026-04-27 11:21 34.79654 135.43515 58 ft 0 kts 134°
2026-04-27 11:36 34.79654 135.43514 58 ft 0 kts 134°
2026-04-27 11:36 34.79655 135.43514 58 ft 0 kts 134°
2026-04-27 11:36 34.79655 135.43513 58 ft 0 kts 134°
2026-04-27 11:37 34.79664 135.43502 50 ft 3 kts 134°
2026-04-27 11:37 34.79677 135.43487 50 ft 3 kts 134°
2026-04-27 11:37 34.79689 135.43472 52 ft 2 kts 134°
2026-04-27 11:37 34.79694 135.43464 50 ft 2 kts 145°
2026-04-27 11:38 34.79699 135.43460 50 ft 0 kts 214°
2026-04-27 11:38 34.79698 135.43458 50 ft 1 kts 220°
2026-04-27 11:38 34.79691 135.43451 51 ft 3 kts 220°
2026-04-27 11:38 34.79670 135.43429 52 ft 5 kts 220°
2026-04-27 11:39 34.79644 135.43402 49 ft 5 kts 220°
2026-04-27 11:39 34.79614 135.43371 51 ft 6 kts 220°
2026-04-27 11:39 34.79583 135.43338 51 ft 6 kts 220°
2026-04-27 11:39 34.79552 135.43323 53 ft 5 kts 194°
2026-04-27 11:40 34.79519 135.43311 52 ft 0 kts 201°
2026-04-27 11:40 34.79515 135.43314 51 ft 1 kts 157°
2026-04-27 11:40 34.79510 135.43320 51 ft 2 kts 141°
2026-04-27 11:40 34.79477 135.43358 54 ft 9 kts 135°
2026-04-27 11:41 34.79425 135.43421 52 ft 12 kts 135°
2026-04-27 11:41 34.79365 135.43494 52 ft 13 kts 135°
2026-04-27 11:41 34.79317 135.43553 53 ft 2 kts 139°
2026-04-27 11:41 34.79313 135.43557 50 ft 0 kts 142°
2026-04-27 11:42 34.79312 135.43558 51 ft 2 kts 142°
2026-04-27 11:43 34.79285 135.43571 50 ft 5 kts 171°
2026-04-27 11:43 34.79236 135.43571 53 ft 11 kts 177°
2026-04-27 11:43 34.79168 135.43583 53 ft 9 kts 174°
2026-04-27 11:43 34.79104 135.43593 52 ft 9 kts 167°
2026-04-27 11:44 34.79049 135.43631 51 ft 10 kts 139°
2026-04-27 11:44 34.78998 135.43691 48 ft 12 kts 135°
2026-04-27 11:44 34.78923 135.43779 47 ft 18 kts 136°
2026-04-27 11:44 34.78824 135.43905 42 ft 21 kts 134°
2026-04-27 11:45 34.78748 135.43997 44 ft 15 kts 136°
2026-04-27 11:45 34.78676 135.44082 44 ft 14 kts 135°
2026-04-27 11:45 34.78606 135.44165 43 ft 14 kts 136°
2026-04-27 11:45 34.78540 135.44246 46 ft 13 kts 133°
2026-04-27 11:46 34.78476 135.44320 44 ft 13 kts 148°
2026-04-27 11:46 34.78393 135.44338 47 ft 12 kts 176°
2026-04-27 11:46 34.78309 135.44338 48 ft 12 kts 181°
2026-04-27 11:46 34.78229 135.44336 48 ft 11 kts 179°
2026-04-27 11:47 34.78161 135.44361 44 ft 10 kts 146°
2026-04-27 11:47 34.78107 135.44422 45 ft 11 kts 136°
2026-04-27 11:47 34.78054 135.44484 44 ft 10 kts 136°
2026-04-27 11:47 34.78003 135.44544 43 ft 10 kts 133°
2026-04-27 11:48 34.77948 135.44614 43 ft 13 kts 134°
2026-04-27 11:48 34.77882 135.44696 40 ft 14 kts 135°
2026-04-27 11:48 34.77834 135.44753 42 ft 8 kts 136°
2026-04-27 11:48 34.77777 135.44821 43 ft 13 kts 135°
2026-04-27 11:49 34.77712 135.44894 41 ft 12 kts 142°
2026-04-27 11:49 34.77629 135.44950 43 ft 10 kts 155°
2026-04-27 11:49 34.77564 135.44986 45 ft 10 kts 156°
2026-04-27 11:49 34.77496 135.45016 43 ft 11 kts 173°
2026-04-27 11:50 34.77429 135.44965 46 ft 8 kts 252°
2026-04-27 11:50 34.77446 135.44911 43 ft 1 kts 312°
2026-04-27 11:50 34.77456 135.44897 46 ft 3 kts 313°
2026-04-27 11:50 34.77515 135.44825 45 ft 40 kts 315°
2026-04-27 11:51 34.77924 135.44330 44 ft 123 kts 315°
2026-04-27 11:51 34.78680 135.43419 239 ft 172 kts 314°
2026-04-27 11:51 34.80357 135.41275 2131 ft 178 kts 300°
2026-04-27 11:52 34.80538 135.39785 2910 ft 188 kts 255°
2026-04-27 11:52 34.79785 135.38467 2843 ft 201 kts 214°
2026-04-27 11:52 34.78485 135.37910 2898 ft 194 kts 200°
2026-04-27 11:52 34.77187 135.37606 3378 ft 196 kts 180°
2026-04-27 11:53 34.75832 135.37882 4088 ft 200 kts 168°
2026-04-27 11:53 34.74450 135.38135 4723 ft 202 kts 185°
2026-04-27 11:53 34.73033 135.38043 4928 ft 204 kts 193°
2026-04-27 11:53 34.71662 135.37678 5118 ft 204 kts 197°
2026-04-27 11:54 34.70203 135.37240 5287 ft 227 kts 197°
2026-04-27 11:54 34.68610 135.36772 5627 ft 241 kts 197°
2026-04-27 11:54 34.66998 135.36157 6133 ft 245 kts 214°
2026-04-27 11:54 34.65777 135.34776 6818 ft 238 kts 242°
2026-04-27 11:55 34.65197 135.32934 7549 ft 233 kts 265°
2026-04-27 11:55 34.65240 135.30983 8226 ft 233 kts 285°
2026-04-27 11:55 34.65819 135.29139 8894 ft 235 kts 289°
2026-04-27 11:55 34.66225 135.27227 9567 ft 239 kts 283°
2026-04-27 11:56 34.66573 135.25227 10222 ft 242 kts 283°
2026-04-27 11:56 34.66928 135.23233 10915 ft 241 kts 283°
2026-04-27 11:56 34.67296 135.21238 11620 ft 241 kts 283°
2026-04-27 11:56 34.67669 135.19253 12322 ft 241 kts 282°
2026-04-27 11:57 34.68040 135.17294 13005 ft 242 kts 282°
2026-04-27 11:57 34.68421 135.15300 13695 ft 242 kts 282°
2026-04-27 11:57 34.68806 135.13300 14329 ft 243 kts 282°
2026-04-27 11:57 34.69190 135.11302 14954 ft 242 kts 282°
2026-04-27 11:58 34.69574 135.09303 15589 ft 243 kts 282°
2026-04-27 11:58 34.69958 135.07301 16228 ft 243 kts 281°
2026-04-27 11:58 34.70338 135.05319 16852 ft 243 kts 281°
2026-04-27 11:58 34.70632 135.03298 17461 ft 243 kts 273°
2026-04-27 11:59 34.70616 135.01234 18079 ft 244 kts 264°
2026-04-27 11:59 34.70333 134.99192 18631 ft 245 kts 260°
2026-04-27 11:59 34.69957 134.97166 19190 ft 245 kts 259°
2026-04-27 11:59 34.69567 134.95157 19765 ft 244 kts 259°
2026-04-27 12:00 34.69174 134.93141 20314 ft 244 kts 259°
2026-04-27 12:00 34.68792 134.91167 20863 ft 243 kts 260°
2026-04-27 12:00 34.68401 134.89137 21405 ft 244 kts 260°
2026-04-27 12:00 34.68022 134.87159 21938 ft 243 kts 260°
2026-04-27 12:01 34.67639 134.85153 22468 ft 243 kts 260°
2026-04-27 12:01 34.67257 134.83148 22995 ft 244 kts 260°
2026-04-27 12:01 34.66867 134.81092 23191 ft 256 kts 260°
2026-04-27 12:01 34.66457 134.78921 23316 ft 270 kts 260°
2026-04-27 12:02 34.66026 134.76647 23564 ft 279 kts 260°
2026-04-27 12:02 34.65586 134.74334 23959 ft 281 kts 260°
2026-04-27 12:02 34.65150 134.72052 24460 ft 280 kts 260°
2026-04-27 12:02 34.64710 134.69750 24954 ft 279 kts 261°
2026-04-27 12:03 34.64269 134.67438 25395 ft 280 kts 261°
2026-04-27 12:03 34.63829 134.65135 25846 ft 280 kts 261°
2026-04-27 12:03 34.63393 134.62851 26289 ft 280 kts 261°
2026-04-27 12:03 34.62952 134.60553 26872 ft 275 kts 261°
2026-04-27 12:04 34.62522 134.58309 27503 ft 269 kts 261°
2026-04-27 12:04 34.62099 134.56105 28044 ft 266 kts 262°
2026-04-27 12:04 34.61686 134.53954 28524 ft 264 kts 262°
2026-04-27 12:04 34.61271 134.51791 29046 ft 260 kts 262°
2026-04-27 12:05 34.60863 134.49665 29571 ft 257 kts 262°
2026-04-27 12:05 34.60458 134.47561 30042 ft 254 kts 262°
2026-04-27 12:05 34.60058 134.45478 30419 ft 252 kts 262°
2026-04-27 12:05 34.59658 134.43399 30718 ft 252 kts 262°
2026-04-27 12:06 34.59264 134.41351 31019 ft 252 kts 262°
2026-04-27 12:06 34.58864 134.39278 31327 ft 252 kts 262°
2026-04-27 12:06 34.58459 134.37168 31313 ft 262 kts 262°
2026-04-27 12:06 34.58036 134.34974 31342 ft 270 kts 261°
2026-04-27 12:07 34.57602 134.32723 31416 ft 277 kts 261°
2026-04-27 12:07 34.57158 134.30435 31507 ft 283 kts 261°
2026-04-27 12:07 34.56701 134.28082 31632 ft 289 kts 261°
2026-04-27 12:07 34.56235 134.25684 31775 ft 293 kts 261°
2026-04-27 12:08 34.55770 134.23290 31920 ft 298 kts 261°
2026-04-27 12:08 34.54820 134.18288 31964 ft 308 kts 264°
2026-04-27 12:09 34.54678 134.13012 31977 ft 318 kts 272°
2026-04-27 12:09 34.55448 134.07662 31983 ft 331 kts 281°